Location: Newark
(45.5000°N, 11.4167°E)
Time: 17:22:49
(UTC+00:00)

Vanguard 3 - Pass Details

Date: 25 August 2019
Orbit: 508 x 3263 km, 33.4° (Epoch: 22 September)

Event Time Altitude Azimuth Distance (km) Brightness Sun altitude
Rises 14:58:06 0° 227° (SW) 5,578 12.3 31.6°
Reaches altitude 10° 15:03:17 10° 216° (SW) 4,029 11.6 30.7°
Maximum altitude 15:10:25 23° 170° (S) 2,388 9.8 29.5°
Drops below altitude 10° 15:15:18 10° 120° (ESE) 2,646 9.5 28.7°
Sets 15:17:54 0° 105° (ESE) 3,300 9.8 28.2°
